DW4005 Mahon ES current weather conditions

sailwx.info

Wind from 324 at 0 knots gusting 5

Air temperature 18.3° C
Dewpoint 12.1° C

Last reported at 2015-May-24 18:41 UTC.
Time now 2015-May-24 19:22 UTC

Location: N 39°56' E 004°08'.
View on Google Maps.

See reports from other nearby stations

  
Tides and Currents Weather Stations Pressure Air Temp Water Temp Dewpoint Dewpoint Depression Visibility Wind Speed Wind Dir Waves Ship Positions
date/time (UTC)wind fromknots sea level pressurealtimeterstation pressurevisibilityair tempwater tempwave heightnotes
2015-May-24 18:41 324 0 gusting 5 18.3
2015-May-24 18:26 326 2 gusting 7 18.9
2015-May-24 18:11 327 2 gusting 6 18.9
2015-May-24 17:56 324 5 gusting 9 19.4
2015-May-24 17:41 328 4 gusting 12 19.4
2015-May-24 17:26 327 5 gusting 8 20.0
2015-May-24 17:11 323 3 gusting 8 20.6
2015-May-24 16:56 321 3 gusting 8 20.6
2015-May-24 16:43 327 6 gusting 9 20.6
2015-May-24 16:26 327 5 gusting 10 21.1
2015-May-24 16:11 320 4 gusting 7 21.1
2015-May-24 15:56 313 5 gusting 9 21.7
2015-May-24 15:41 322 4 gusting 7 21.7
2015-May-24 15:26 337 3 gusting 11 21.7
2015-May-24 15:11 322 4 gusting 9 21.1
2015-May-24 14:56 324 5 gusting 9 21.1
2015-May-24 14:41 342 4 gusting 11 21.1
2015-May-24 14:26 323 4 gusting 11 21.1
2015-May-24 14:11 318 4 gusting 12 21.1
2015-May-24 13:56 323 6 gusting 10 21.1
2015-May-24 13:41 320 6 gusting 10 21.1
2015-May-24 13:26 320 4 gusting 11 21.7
2015-May-24 13:11 327 6 gusting 11 21.7
2015-May-24 12:56 323 5 gusting 11 21.1
2015-May-24 12:43 321 6 gusting 15 21.7
2015-May-24 12:26 308 6 gusting 12 21.7
2015-May-24 12:11 323 5 gusting 9 22.2
2015-May-24 11:56 340 6 gusting 10 21.7
2015-May-24 11:41 346 6 gusting 13 22.8
2015-May-24 11:26 320 5 gusting 9 22.2
2015-May-24 11:11 326 4 gusting 8 22.8
2015-May-24 10:56 329 5 gusting 8 22.8
2015-May-24 10:41 332 6 gusting 10 22.8
2015-May-24 10:26 317 4 gusting 8 23.3
2015-May-24 10:11 321 5 gusting 9 22.8
2015-May-24 09:56 325 3 gusting 6 23.3
2015-May-24 09:41 323 3 gusting 7 22.8
2015-May-24 09:26 333 4 gusting 13 22.2
2015-May-24 09:11 325 6 gusting 13 22.2
2015-May-24 08:56 340 6 gusting 13 21.7
2015-May-24 08:41 327 6 gusting 13 21.7
2015-May-24 08:26 316 6 gusting 12 21.7
2015-May-24 08:11 315 6 gusting 11 21.1
2015-May-24 07:56 329 4 gusting 11 20.0
2015-May-24 07:41 328 5 gusting 10 20.0
2015-May-24 07:26 319 6 gusting 10 19.4
2015-May-24 07:11 338 4 gusting 13 19.4
2015-May-24 06:56 332 4 gusting 11 19.4
2015-May-24 06:41 329 5 gusting 9 18.9
2015-May-24 06:26 327 4 gusting 8 18.9
2015-May-24 06:10 293 3 gusting 7 18.9
2015-May-24 05:55 275 0 gusting 4 18.3
2015-May-24 05:40 275 0 gusting 5 17.8
2015-May-24 05:27 275 0 gusting 5 17.2
2015-May-24 05:10 275 2 gusting 6 16.7
2015-May-24 04:55 275 3 gusting 6 16.7
2015-May-24 04:40 275 1 gusting 4 16.1
2015-May-24 04:25 275 1 gusting 6 16.1
2015-May-24 04:10 274 3 gusting 7 16.1
2015-May-24 03:55 269 3 gusting 6 16.1
2015-May-24 03:40 248 1 gusting 6 15.6
2015-May-24 03:25 243 4 gusting 6 16.1
2015-May-24 03:10 217 2 gusting 7 16.7
2015-May-24 02:55 211 1 gusting 6 16.7
2015-May-24 02:40 211 17.2
2015-May-24 02:25 208 1 gusting 6 17.2
2015-May-24 02:10 208 2 gusting 5 17.2
2015-May-24 01:55 207 1 gusting 6 17.2
2015-May-24 01:40 207 0 gusting 5 17.2
2015-May-24 01:25 207 2 gusting 5 17.2
2015-May-24 01:10 206 1 gusting 6 17.2
2015-May-24 00:55 202 1 gusting 6 16.7
2015-May-24 00:40 196 0 gusting 5 16.7
2015-May-24 00:25 194 1 gusting 5 17.2
2015-May-24 00:10 187 2 gusting 6 16.7
2015-May-23 23:55 179 16.7
2015-May-23 23:40 173 0 gusting 4 16.7
2015-May-23 23:25 156 0 gusting 6 16.7
2015-May-23 23:13 150 16.1
2015-May-23 22:55 150 16.1
2015-May-23 22:40 150 2 gusting 7 16.1
2015-May-23 22:25 150 2 gusting 6 16.1
2015-May-23 22:10 152 4 gusting 8 16.1
2015-May-23 21:55 147 2 gusting 8 16.1
2015-May-23 21:40 144 2 gusting 8 16.1
2015-May-23 21:25 144 3 gusting 6 16.1
2015-May-23 21:10 153 4 gusting 7 16.1
2015-May-23 20:55 326 16.1
2015-May-23 20:40 327 16.1
2015-May-23 20:25 327 16.1
2015-May-23 20:10 326 16.7
2015-May-23 19:55 326 16.7
2015-May-23 19:40 327 16.7
2015-May-23 19:25 327 17.2
2015-May-23 19:10 327 17.8
2015-May-23 18:55 327 0 gusting 3 18.3
2015-May-23 18:40 327 0 gusting 4 18.9
2015-May-23 18:25 327 0 gusting 5 18.9
2015-May-23 18:10 329 2 gusting 5 19.4
2015-May-23 17:55 330 4 gusting 7 20.0
2015-May-23 17:40 330 4 gusting 6 20.0
2015-May-23 17:25 327 2 gusting 6 20.6
2015-May-23 17:10 325 1 gusting 6 21.1
2015-May-23 16:55 326 3 gusting 6 21.1
2015-May-23 16:40 329 0 gusting 4 22.2
2015-May-23 16:25 328 1 gusting 5 22.8
2015-May-23 16:10 328 0 gusting 3 22.8
2015-May-23 15:57 327 22.8
2015-May-23 15:40 327 0 gusting 5 22.8
2015-May-23 15:25 325 1 gusting 6 22.2
2015-May-23 15:09 324 2 gusting 6 21.7
2015-May-23 14:54 323 3 gusting 7 20.6
2015-May-23 14:39 334 2 gusting 6 21.1
2015-May-23 14:25 320 4 gusting 8 21.7
2015-May-23 14:09 330 4 gusting 9 21.7
2015-May-23 13:54 319 3 gusting 9 22.2
2015-May-23 13:39 319 5 gusting 9 22.2
2015-May-23 13:24 318 5 gusting 9 22.2
2015-May-23 13:09 308 6 gusting 11 22.2
2015-May-23 12:54 328 6 gusting 12 21.7
2015-May-23 12:39 350 6 gusting 12 22.2
2015-May-23 12:24 346 6 gusting 13 21.7
2015-May-23 12:09 306 7 gusting 15 21.7
2015-May-23 11:54 311 6 gusting 13 21.7
2015-May-23 11:39 009 6 gusting 17 21.7
2015-May-23 11:24 329 6 gusting 13 21.7
2015-May-23 11:09 315 6 gusting 15 21.7
2015-May-23 10:54 336 6 gusting 13 21.7
2015-May-23 10:39 313 6 gusting 13 21.7
2015-May-23 10:24 331 7 gusting 16 21.7
2015-May-23 10:09 338 6 gusting 13 21.7
2015-May-23 09:54 312 6 gusting 13 21.7
2015-May-23 09:39 336 5 gusting 13 21.1
2015-May-23 09:24 319 6 gusting 13 20.6
2015-May-23 09:09 336 6 gusting 13 21.1
2015-May-23 08:54 327 5 gusting 13 20.6
2015-May-23 08:40 315 4 gusting 13 20.6
2015-May-23 08:24 326 6 gusting 11 20.6
2015-May-23 08:09 300 4 gusting 12 20.0
2015-May-23 07:54 338 6 gusting 12 19.4
2015-May-23 07:39 311 5 gusting 12 18.9
2015-May-23 07:24 303 4 gusting 11 18.3
2015-May-23 07:09 286 4 gusting 11 18.3
2015-May-23 06:54 298 4 gusting 12 18.3
2015-May-23 06:39 315 4 gusting 8 18.3
2015-May-23 06:24 271 4 gusting 9 17.8
2015-May-23 06:09 275 3 gusting 8 17.8
2015-May-23 05:54 312 2 gusting 9 17.2
2015-May-23 05:39 336 5 gusting 12 17.2
2015-May-23 05:24 309 5 gusting 11 17.2
2015-May-23 05:09 327 4 gusting 9 16.7
2015-May-23 04:54 323 5 gusting 11 16.7
2015-May-23 04:39 315 5 gusting 9 16.1
2015-May-23 04:24 313 5 gusting 11 16.1
2015-May-23 04:09 302 3 gusting 7 16.1
2015-May-23 03:54 295 3 gusting 7 16.1
2015-May-23 03:39 290 1 gusting 9 16.1
2015-May-23 03:24 274 2 gusting 7 16.1
2015-May-23 03:09 273 2 gusting 6 16.1
2015-May-23 02:54 273 3 gusting 6 16.1
2015-May-23 02:39 275 3 gusting 6 15.6
2015-May-23 02:23 277 2 gusting 6 15.6
2015-May-23 02:08 279 1 gusting 6 15.6
2015-May-23 01:53 277 4 gusting 7 15.6
2015-May-23 01:38 246 1 gusting 7 15.6
2015-May-23 01:24 265 3 gusting 7 15.6
2015-May-23 01:08 260 2 gusting 6 15.6
2015-May-23 00:53 265 1 gusting 5 15.6
2015-May-23 00:38 266 2 gusting 6 15.6
2015-May-23 00:23 265 1 gusting 6 15.0
2015-May-23 00:08 256 1 gusting 6 15.0
2015-May-22 23:53 254 1 gusting 5 15.0
2015-May-22 23:38 258 2 gusting 6 15.0
2015-May-22 23:23 263 1 gusting 6 15.0
2015-May-22 23:08 264 1 gusting 5 15.0
2015-May-22 22:53 263 1 gusting 5 15.0
2015-May-22 22:38 255 1 gusting 6 15.6
2015-May-22 22:23 246 0 gusting 5 15.6
2015-May-22 22:08 248 0 gusting 5 15.6
2015-May-22 21:53 246 16.1
2015-May-22 21:38 247 0 gusting 2 16.1
2015-May-22 21:23 244 0 gusting 8 16.1
2015-May-22 21:08 213 16.1
2015-May-22 20:53 212 16.1
2015-May-22 20:38 212 0 gusting 6 16.1
2015-May-22 20:23 202 16.1
2015-May-22 20:08 205 1 gusting 5 16.7
2015-May-22 19:53 266 16.7
2015-May-22 19:38 268 16.7
2015-May-22 19:23 268 0 gusting 0 16.7
2015-May-22 19:10